Hourly Data Report for May 28, 2021

TOBERMORY RCS
ONTARIO
Current Station Operator: ECCC - MSC

45°14'00.000" N
81°38'00.000" W
213.50 m
6128330
71767
TTR

Download Data

Hourly Data (May 2021)
Hourly Data Report for May 28, 2021
TIME
LST
Temp Definition
°C
Dew Point Definition
°C
Rel Hum Definition
%
Precip. Amount Definition
mm

Wind Dir Definition
10's deg

Wind Spd Definition
km/h
Visibility Definition
km
Stn Press Definition
kPa
Hmdx Definition


Wind Chill Definition


Weather Definition


00:00 5.4 2.7 83 0.0 1 4   99.79     LegendNANA
01:00 6.5 1.8 72 0.0 6 10   99.72     LegendNANA
02:00 5.9 1.3 72 0.0 6 15   99.73     LegendNANA
03:00 5.5 -0.7 64 0.0 6 13   99.73     LegendNANA
04:00 5.2 -1.2 63 0.0 6 11   99.78     LegendNANA
05:00 4.9 -1.0 66 0.0 7 13   99.79     LegendNANA
06:00 5.0 -2.2 60 0.0 7 13   99.78     LegendNANA
07:00 5.0 -2.7 57 0.0 6 14   99.83     LegendNANA
08:00 5.0 -2.5 58 0.0 6 15   99.78     LegendNANA
09:00 5.7 -2.7 55 0.0 6 16   99.78     LegendNANA
10:00 6.3 -3.0 51 0.0 6 14   99.79     LegendNANA
11:00 6.4 -4.3 46 0.0 6 14   99.79     LegendNANA
12:00 7.0 -4.0 45 0.0 7 15   99.74     LegendNANA
13:00 7.3 -1.9 52 0.0 3 11   99.70     LegendNANA
14:00 7.6 -3.9 44 0.0 5 15   99.65     LegendNANA
15:00 9.3 -3.6 40 0.0 5 16   99.55     LegendNANA
16:00 9.5 -3.2 41 0.0 2 13   99.53     LegendNANA
17:00 9.3 -4.2 38 0.0 4 9   99.50     LegendNANA
18:00 8.8 -3.6 41 0.0 1 10   99.48     LegendNANA
19:00 8.5 -2.4 46 0.0 2 4   99.49     LegendNANA
20:00 5.6 -0.1 67 0.0 5 1   99.53     LegendNANA
21:00 3.4 0.3 80 0.0 36 3   99.58     LegendNANA
22:00 4.1 0.7 78 0.0 3 4   99.60     LegendNANA
23:00 5.3 0.1 69 0.0 6 4   99.60     LegendNANA

Notes on Data Quality.

Legend

  • E = Estimated
  • M = Missing
  • NA = Not Available*
  • [empty] = Indicates an unobserved value
Date modified: